Weather History for Visalia, CA

Change the Weather History Date:

Saturday, November 23, 2013

  Actual Average Record
Temperature  
Mean Temperature 53 °F -  
Max Temperature 62 °F 60 °F 80 °F (1936)
Min Temperature 44 °F 41 °F 28 °F (1947)
Degree Days  
Heating Degree Days 12    
Growing Degree Days 3 (Base 50)    
Moisture  
Dew Point 42 °F    
Average Humidity 72    
Maximum Humidity 87    
Minimum Humidity 52    
Precipitation  
Precipitation 0.00 in - - ()
Sea Level Pressure  
Sea Level Pressure 30.04 in    
Wind  
Wind Speed 3 mph (SE)    
Max Wind Speed 6 mph    
Max Gust Speed -    
Visibility 7 miles    
Events      
Averages and records for this station are not official NWS values.
T = Trace of Precipitation, MM = Missing Value Source: NWS Daily Summary

Daily Weather History Graph

Daily Weather History Graph

Search for Another Location

Airport:

Trip Planner

Search our weather history database for the weather conditions in past years. The results will help you decide how hot, cold, wet, or windy it might be!

Date:

Astronomy

Nov. 23, 2013 Rise Set
Actual Time 6:43 AM PST 4:44 PM PST
Civil Twilight 6:15 AM PST 5:12 PM PST
Nautical Twilight 5:43 AM PST 5:44 PM PST
Astronomical Twilight 5:12 AM PST 6:14 PM PST
Moon 10:13 PM PST (11/23) 11:06 AM PST (11/23)
Length of Visible Light 10h 57m
Length of Day
10h 01m
Waning Gibbous, 68% of the Moon is Illuminated
Nov 23
Waning Gibbous
Nov 25
Last Quarter
Dec 2
New
Dec 9
First Quarter
Dec 17
Full

Hourly Weather History & Observations

Time (PST) Temp. Windchill Dew Point Humidity Pressure Visibility Wind Dir Wind Speed Gust Speed Precip Events Conditions
12:15 AM 46.4 °F 44.3 °F 42.8 °F 87% 29.99 in 3.0 mi SE 4.6 mph - N/A   Clear
12:35 AM 46.4 °F 44.3 °F 41.0 °F 81% 29.99 in 3.0 mi SE 4.6 mph - N/A   Clear
12:55 AM 48.2 °F - 42.8 °F 82% 29.98 in 3.0 mi ESE 4.6 mph - N/A   Clear
1:15 AM 46.4 °F 44.3 °F 41.0 °F 81% 29.98 in 3.0 mi ESE 4.6 mph - N/A   Clear
1:35 AM 46.4 °F 43.5 °F 42.8 °F 87% 30.00 in 3.0 mi East 5.8 mph - N/A   Clear
1:55 AM 46.4 °F 45.2 °F 42.8 °F 87% 30.00 in 4.0 mi East 3.5 mph - N/A   Clear
2:15 AM 44.6 °F 43.1 °F 39.2 °F 81% 29.99 in 2.5 mi SE 3.5 mph - N/A   Clear
2:35 AM 46.4 °F 45.2 °F 39.2 °F 76% 29.99 in 2.5 mi SE 3.5 mph - N/A   Clear
2:55 AM 44.6 °F 43.1 °F 39.2 °F 81% 30.00 in 1.8 mi ESE 3.5 mph - N/A   Clear
3:15 AM 44.6 °F - 39.2 °F 81% 29.99 in 2.0 mi Calm Calm - N/A   Clear
3:35 AM 44.6 °F 42.2 °F 39.2 °F 81% 29.99 in 2.0 mi ESE 4.6 mph - N/A   Clear
3:55 AM 44.6 °F 42.2 °F 39.2 °F 81% 30.00 in 2.0 mi ESE 4.6 mph - N/A   Clear
4:15 AM 44.6 °F 41.4 °F 39.2 °F 81% 30.01 in 2.5 mi East 5.8 mph - N/A   Clear
4:35 AM 44.6 °F 42.2 °F 39.2 °F 81% 30.02 in 3.0 mi ESE 4.6 mph - N/A   Clear
4:55 AM 44.6 °F - 39.2 °F 81% 30.02 in 3.0 mi Calm Calm - N/A   Clear
5:15 AM 44.6 °F 41.4 °F 39.2 °F 81% 30.03 in 3.0 mi East 5.8 mph - N/A   Clear
5:35 AM 44.6 °F 41.4 °F 39.2 °F 81% 30.03 in 3.0 mi East 5.8 mph - N/A   Clear
5:55 AM 46.4 °F 45.2 °F 39.2 °F 76% 30.03 in 4.0 mi East 3.5 mph - N/A   Clear
6:15 AM 44.6 °F 42.2 °F 39.2 °F 81% 30.04 in 5.0 mi East 4.6 mph - N/A   Clear
6:35 AM 46.4 °F 45.2 °F 39.2 °F 76% 30.05 in 5.0 mi East 3.5 mph - N/A   Clear
6:55 AM 44.6 °F - 39.2 °F 81% 30.05 in 6.0 mi Calm Calm - N/A   Clear
7:15 AM 46.4 °F - 41.0 °F 81% 30.05 in 7.0 mi Calm Calm - N/A   Clear
7:35 AM 46.4 °F - 39.2 °F 76% 30.04 in 8.0 mi Calm Calm - N/A   Clear
7:55 AM 44.6 °F 42.2 °F 39.2 °F 81% 30.06 in 4.0 mi ESE 4.6 mph - N/A   Clear
8:15 AM 44.6 °F 42.2 °F 39.2 °F 81% 30.06 in 5.0 mi ESE 4.6 mph - N/A   Clear
8:35 AM 46.4 °F - 39.2 °F 76% 30.07 in 5.0 mi Calm Calm - N/A   Clear
8:55 AM 46.4 °F 45.2 °F 41.0 °F 81% 30.07 in 7.0 mi ESE 3.5 mph - N/A   Clear
9:15 AM 48.2 °F - 42.8 °F 82% 30.07 in 9.0 mi ESE 3.5 mph - N/A   Clear
9:35 AM 51.8 °F - 42.8 °F 71% 30.06 in 10.0 mi SSE 4.6 mph - N/A   Clear
9:55 AM 53.6 °F - 44.6 °F 72% 30.06 in 10.0 mi South 5.8 mph - N/A   Clear
10:15 AM 53.6 °F - 44.6 °F 72% 30.06 in 10.0 mi SSW 4.6 mph - N/A   Clear
10:35 AM 55.4 °F - 44.6 °F 67% 30.06 in 10.0 mi South 4.6 mph - N/A   Clear
10:55 AM 55.4 °F - 44.6 °F 67% 30.06 in 10.0 mi South 3.5 mph - N/A   Clear
11:15 AM 57.2 °F - 44.6 °F 63% 30.06 in 10.0 mi SSE 3.5 mph - N/A   Clear
11:35 AM 57.2 °F - 44.6 °F 63% 30.05 in 10.0 mi South 3.5 mph - N/A   Clear
11:55 AM 59.0 °F - 44.6 °F 59% 30.05 in 10.0 mi SSW 5.8 mph - N/A   Clear
12:15 PM 59.0 °F - 44.6 °F 59% 30.05 in 10.0 mi Calm Calm - N/A   Clear
12:35 PM 59.0 °F - 44.6 °F 59% 30.05 in 10.0 mi South 4.6 mph - N/A   Clear
12:55 PM 59.0 °F - 44.6 °F 59% 30.04 in 10.0 mi South 5.8 mph - N/A   Clear
1:15 PM 59.0 °F - 44.6 °F 59% 30.03 in 10.0 mi South 4.6 mph - N/A   Clear
1:35 PM 60.8 °F - 44.6 °F 55% 30.02 in 10.0 mi South 3.5 mph - N/A   Clear
1:55 PM 62.6 °F - 44.6 °F 52% 30.02 in 10.0 mi NNW 3.5 mph - N/A   Clear
2:15 PM 60.8 °F - 44.6 °F 55% 30.01 in 10.0 mi NNW 3.5 mph - N/A   Clear
2:35 PM 60.8 °F - 44.6 °F 55% 30.02 in 10.0 mi NW 5.8 mph - N/A   Partly Cloudy
2:55 PM 60.8 °F - 44.6 °F 55% 30.03 in 10.0 mi WNW 3.5 mph - N/A   Clear
3:15 PM 60.8 °F - 42.8 °F 52% 30.03 in 10.0 mi SW 3.5 mph - N/A   Clear
3:35 PM 60.8 °F - 42.8 °F 52% 30.03 in 10.0 mi Calm Calm - N/A   Clear
3:55 PM 60.8 °F - 42.8 °F 52% 30.03 in 10.0 mi West 3.5 mph - N/A   Clear
4:15 PM 60.8 °F - 44.6 °F 55% 30.03 in 10.0 mi Calm Calm - N/A   Clear
4:35 PM 60.8 °F - 44.6 °F 55% 30.03 in 10.0 mi Calm Calm - N/A   Clear
4:55 PM 59.0 °F - 42.8 °F 55% 30.03 in 10.0 mi Calm Calm - N/A   Clear
5:15 PM 57.2 °F - 42.8 °F 59% 30.03 in 10.0 mi NE 3.5 mph - N/A   Clear
5:35 PM 55.4 °F - 42.8 °F 63% 30.04 in 10.0 mi Calm Calm - N/A   Clear
5:55 PM 53.6 °F - 44.6 °F 72% 30.04 in 10.0 mi Calm Calm - N/A   Clear
6:15 PM 53.6 °F - 42.8 °F 67% 30.05 in 10.0 mi Calm Calm - N/A   Clear
6:35 PM 51.8 °F - 42.8 °F 71% 30.05 in 10.0 mi Calm Calm - N/A   Clear
6:55 PM 53.6 °F - 44.6 °F 72% 30.06 in 10.0 mi Calm Calm - N/A   Clear
7:15 PM 51.8 °F - 44.6 °F 76% 30.06 in 10.0 mi Calm Calm - N/A   Clear
7:35 PM 50.0 °F - 42.8 °F 76% 30.06 in 10.0 mi ESE 3.5 mph - N/A   Clear
7:55 PM 50.0 °F - 42.8 °F 76% 30.07 in 6.0 mi ESE 3.5 mph - N/A   Clear
8:15 PM 48.2 °F - 42.8 °F 82% 30.07 in 7.0 mi Calm Calm - N/A   Clear
8:35 PM 48.2 °F - 42.8 °F 82% 30.08 in 4.0 mi ESE 3.5 mph - N/A   Clear
8:55 PM 48.2 °F - 42.8 °F 82% 30.08 in 5.0 mi Calm Calm - N/A   Clear
9:15 PM 48.2 °F - 42.8 °F 82% 30.09 in 6.0 mi Calm Calm - N/A   Clear
9:35 PM 48.2 °F - 42.8 °F 82% 30.09 in 6.0 mi Calm Calm - N/A   Clear
9:55 PM 48.2 °F - 41.0 °F 76% 30.09 in 5.0 mi East 4.6 mph - N/A   Clear
10:15 PM 46.4 °F 45.2 °F 39.2 °F 76% 30.10 in 5.0 mi East 3.5 mph - N/A   Clear
10:35 PM 46.4 °F - 39.2 °F 76% 30.10 in 5.0 mi Calm Calm - N/A   Clear
10:55 PM 46.4 °F - 39.2 °F 76% 30.10 in 6.0 mi Calm Calm - N/A   Clear
11:15 PM 46.4 °F - 39.2 °F 76% 30.11 in 4.0 mi Calm Calm - N/A   Partly Cloudy
11:35 PM 44.6 °F 43.1 °F 39.2 °F 81% 30.11 in 4.0 mi East 3.5 mph - N/A   Clear
11:55 PM 46.4 °F 44.3 °F 39.2 °F 76% 30.11 in 5.0 mi East 4.6 mph - N/A   Clear